Location: Eboldshausen
(51.7766°N, 10.0050°E)
Time: 16:38:12
(UTC+00:00)

RESURS DK-1 - Pass Details

Date: 15 November 2025
Orbit: 524 x 534 km, 69.9° (Epoch: 12 December)

Event Time Altitude Azimuth Distance (km) Brightness Sun altitude
Rises 17:24:51 0° 325° (NW) 2,698 6.2 -17.6°
Reaches altitude 10° 17:27:03 10° 323° (NW) 1,803 5.3 -18.0°
Maximum altitude 17:31:02 66° 242° (WSW) 588 2.6 -18.6°
Drops below altitude 10° 17:35:00 10° 160° (SSE) 1,789 4.8 -19.2°
Enters shadow 17:35:24 - 159° (SSE) 1,949 5.0 -19.3°
